Weather History for KIXD - January, 2014

Change the Weather History Date:

Thursday, January 30, 2014

  Actual Average Record
Temperature  
Mean Temperature 38 °F -  
Max Temperature 46 °F 38 °F 66 °F (2012)
Min Temperature 30 °F 21 °F 3 °F (2004)
Degree Days  
Heating Degree Days 27    
Moisture  
Dew Point 14 °F    
Average Humidity 42    
Maximum Humidity 59    
Minimum Humidity 30    
Precipitation  
Precipitation 0.00 in - - ()
Sea Level Pressure  
Sea Level Pressure 29.82 in    
Wind  
Wind Speed 20 mph (SW)    
Max Wind Speed 30 mph    
Max Gust Speed 40 mph    
Visibility 10 miles    
Events      
Averages and records for this station are not official NWS values.
T = Trace of Precipitation, MM = Missing Value Source: NWS Daily Summary

Daily Weather History Graph

Daily Weather History Graph

Search for Another Location

Airport or City:

Trip Planner

Search our weather history database for the weather conditions in past years. The results will help you decide how hot, cold, wet, or windy it might be!

Date:

Astronomy

Jan. 30, 2014 Rise Set
Actual Time 7:27 AM CST 5:38 PM CST
Civil Twilight 6:59 AM CST 6:07 PM CST
Nautical Twilight 6:27 AM CST 6:39 PM CST
Astronomical Twilight 5:55 AM CST 7:10 PM CST
Moon 6:54 AM CST (1/30) 5:51 PM CST (1/30)
Length of Visible Light 11h 07m
Length of Day
10h 11m
Waning Crescent, 0% of the Moon is Illuminated
Jan 30
Waning Crescent
Jan 30
New
Feb 6
First Quarter
Feb 14
Full
Feb 22
Last Quarter

Hourly Weather History & Observations

Time (CST) Temp. Windchill Dew Point Humidity Pressure Visibility Wind Dir Wind Speed Gust Speed Precip Events Conditions
12:53 AM 32.0 °F 19.8 °F 10.0 °F 40% 29.84 in 10.0 mi South 20.7 mph 31.1 mph N/A   Clear
1:53 AM 32.0 °F 19.5 °F 10.0 °F 40% 29.80 in 10.0 mi South 21.9 mph 33.4 mph N/A   Clear
2:53 AM 32.0 °F 19.2 °F 10.0 °F 40% 29.79 in 10.0 mi South 23.0 mph 31.1 mph N/A   Clear
3:53 AM 32.0 °F 20.1 °F 10.0 °F 40% 29.76 in 10.0 mi South 19.6 mph 31.1 mph N/A   Clear
4:53 AM 32.0 °F 18.6 °F 10.0 °F 40% 29.70 in 10.0 mi South 25.3 mph 40.3 mph N/A   Clear
5:53 AM 33.1 °F 20.3 °F 10.0 °F 38% 29.70 in 10.0 mi South 24.2 mph 39.1 mph N/A   Clear
6:53 AM 33.1 °F 20.3 °F 10.9 °F 40% 29.67 in 10.0 mi South 24.2 mph 34.5 mph N/A   Clear
7:53 AM 33.1 °F 20.9 °F 10.9 °F 40% 29.72 in 10.0 mi South 21.9 mph 28.8 mph N/A   Clear
8:53 AM 33.1 °F 20.6 °F 12.0 °F 42% 29.73 in 10.0 mi South 23.0 mph 36.8 mph N/A   Clear
9:53 AM 35.1 °F 24.1 °F 12.9 °F 40% 29.74 in 10.0 mi SSW 19.6 mph 35.7 mph N/A   Clear
10:53 AM 37.9 °F 25.7 °F 12.9 °F 36% 29.76 in 10.0 mi SSW 29.9 mph 34.5 mph N/A   Overcast
11:53 AM 39.0 °F 28.3 °F 14.0 °F 36% 29.77 in 10.0 mi SSW 24.2 mph 32.2 mph N/A   Partly Cloudy
12:53 PM 41.0 °F 31.6 °F 14.0 °F 33% 29.76 in 10.0 mi SW 20.7 mph 29.9 mph N/A   Overcast
1:53 PM 43.0 °F 35.7 °F 14.0 °F 31% 29.78 in 10.0 mi SW 15.0 mph 25.3 mph N/A   Partly Cloudy
2:53 PM 45.0 °F 38.5 °F 15.1 °F 30% 29.78 in 10.0 mi SW 13.8 mph - N/A   Mostly Cloudy
3:53 PM 46.0 °F 40.6 °F 16.0 °F 30% 29.82 in 10.0 mi WNW 11.5 mph - N/A   Mostly Cloudy
4:53 PM 44.1 °F 38.1 °F 17.1 °F 34% 29.83 in 10.0 mi NNW 11.5 mph - N/A   Scattered Clouds
5:53 PM 37.0 °F 29.3 °F 21.0 °F 52% 29.87 in 10.0 mi North 11.5 mph - N/A   Clear
6:53 PM 34.0 °F 26.6 °F 21.0 °F 59% 29.92 in 10.0 mi North 9.2 mph - N/A   Partly Cloudy
7:53 PM 34.0 °F 25.5 °F 19.9 °F 56% 29.94 in 10.0 mi North 11.5 mph - N/A   Mostly Cloudy
8:53 PM 33.1 °F 25.5 °F 19.0 °F 56% 29.96 in 10.0 mi North 9.2 mph - N/A   Mostly Cloudy
9:53 PM 32.0 °F 20.8 °F 17.1 °F 54% 29.98 in 10.0 mi North 17.3 mph - N/A   Overcast
10:53 PM 30.9 °F 21.2 °F 16.0 °F 54% 29.99 in 10.0 mi North 12.7 mph - N/A   Overcast
11:53 PM 30.0 °F 20.0 °F 16.0 °F 56% 30.01 in 10.0 mi NNE 12.7 mph - N/A   Overcast